TimeEDT,TemperatureF,Dew PointF,Humidity,Sea Level PressureIn,VisibilityMPH,Wind Direction,Wind SpeedMPH,Gust SpeedMPH,PrecipitationIn,Events,Conditions,WindDirDegrees,DateUTC
12:53 AM,37.0,35.1,93,29.61,5.0,East,13.8,21.9,0.04,Rain,Light Rain,90,2013-04-12 04:53:00
1:53 AM,37.0,36.0,96,29.61,5.0,Calm,Calm,-,0.03,Rain,Light Rain,0,2013-04-12 05:53:00
2:06 AM,37.4,35.6,93,29.60,2.0,Calm,Calm,-,0.03,Rain,Rain,0,2013-04-12 06:06:00
2:29 AM,37.4,35.6,93,29.57,3.0,ENE,6.9,-,0.10,Rain,Light Rain,70,2013-04-12 06:29:00
2:53 AM,37.0,36.0,96,29.58,4.0,NE,6.9,-,0.15,Rain,Rain,50,2013-04-12 06:53:00
3:21 AM,37.4,35.6,93,29.54,5.0,NNE,6.9,-,0.01,,Overcast,20,2013-04-12 07:21:00
3:53 AM,37.0,36.0,96,29.58,8.0,NNW,5.8,-,0.02,Rain,Light Rain,340,2013-04-12 07:53:00
4:53 AM,37.0,36.0,96,29.58,4.0,North,5.8,-,0.05,Rain,Light Rain,10,2013-04-12 08:53:00
5:10 AM,37.4,35.6,93,29.55,6.0,NNE,4.6,-,0.02,Rain,Light Rain,30,2013-04-12 09:10:00
5:33 AM,37.4,35.6,93,29.53,10.0,NNE,6.9,-,0.02,Rain,Light Rain,30,2013-04-12 09:33:00
5:53 AM,36.0,35.1,97,29.54,10.0,NNE,8.1,-,0.02,,Overcast,20,2013-04-12 09:53:00
6:18 AM,35.6,33.8,93,29.53,10.0,North,5.8,-,0.00,Rain,Light Rain,10,2013-04-12 10:18:00
6:37 AM,37.4,33.8,87,29.53,10.0,North,5.8,-,0.00,,Overcast,360,2013-04-12 10:37:00
6:53 AM,37.0,34.0,89,29.55,10.0,North,3.5,-,0.00,,Overcast,360,2013-04-12 10:53:00
7:53 AM,37.0,35.1,93,29.58,8.0,Calm,Calm,-,N/A,,Overcast,0,2013-04-12 11:53:00
8:33 AM,37.4,35.6,93,29.56,4.0,West,3.5,-,N/A,,Overcast,280,2013-04-12 12:33:00
8:40 AM,37.4,35.6,93,29.56,3.0,West,4.6,-,N/A,,Overcast,260,2013-04-12 12:40:00
8:53 AM,37.0,36.0,96,29.58,4.0,WSW,5.8,-,N/A,,Overcast,250,2013-04-12 12:53:00
9:53 AM,37.9,37.0,97,29.60,2.5,West,6.9,-,N/A,,Overcast,260,2013-04-12 13:53:00
10:23 AM,39.2,37.4,93,29.58,5.0,SW,8.1,-,0.01,,Overcast,230,2013-04-12 14:23:00
10:53 AM,41.0,39.9,96,29.60,8.0,WSW,8.1,-,0.01,,Overcast,240,2013-04-12 14:53:00
11:53 AM,41.0,39.0,93,29.62,5.0,WSW,11.5,-,0.00,Rain,Light Rain,240,2013-04-12 15:53:00
12:15 PM,41.0,37.4,87,29.62,10.0,West,19.6,25.3,0.00,,Overcast,260,2013-04-12 16:15:00
12:43 PM,39.2,37.4,93,29.63,8.0,WSW,20.7,25.3,0.00,,Overcast,250,2013-04-12 16:43:00
12:53 PM,39.9,36.0,86,29.65,6.0,WSW,17.3,27.6,0.00,,Overcast,250,2013-04-12 16:53:00
1:08 PM,41.0,35.6,81,29.63,10.0,WSW,17.3,-,N/A,,Overcast,250,2013-04-12 17:08:00
1:49 PM,44.6,35.6,71,29.64,10.0,SW,15.0,-,N/A,,Overcast,230,2013-04-12 17:49:00
1:53 PM,42.1,34.0,73,29.66,10.0,WSW,16.1,-,N/A,,Overcast,250,2013-04-12 17:53:00
2:07 PM,39.2,30.2,70,29.65,10.0,West,20.7,28.8,N/A,,Overcast,260,2013-04-12 18:07:00
2:26 PM,39.2,30.2,70,29.65,10.0,West,19.6,26.5,N/A,,Overcast,260,2013-04-12 18:26:00
2:35 PM,39.2,30.2,70,29.66,10.0,West,16.1,25.3,N/A,,Overcast,260,2013-04-12 18:35:00
2:53 PM,39.9,30.0,68,29.68,10.0,West,20.7,24.2,N/A,,Overcast,260,2013-04-12 18:53:00
3:28 PM,41.0,32.0,70,29.67,10.0,West,15.0,-,N/A,,Overcast,260,2013-04-12 19:28:00
3:53 PM,39.9,30.9,70,29.70,10.0,WSW,13.8,-,N/A,,Overcast,240,2013-04-12 19:53:00
4:01 PM,39.2,32.0,75,29.68,10.0,WSW,11.5,-,N/A,,Overcast,240,2013-04-12 20:01:00
4:37 PM,41.0,32.0,70,29.69,10.0,WSW,15.0,21.9,N/A,,Overcast,250,2013-04-12 20:37:00
4:53 PM,41.0,30.9,67,29.71,10.0,WSW,16.1,-,N/A,,Overcast,250,2013-04-12 20:53:00
5:46 PM,41.0,32.0,70,29.71,10.0,SW,12.7,-,N/A,,Overcast,230,2013-04-12 21:46:00
5:53 PM,41.0,33.1,73,29.73,10.0,WSW,10.4,-,N/A,,Overcast,240,2013-04-12 21:53:00
6:14 PM,41.0,33.8,76,29.72,10.0,SW,10.4,-,N/A,,Overcast,230,2013-04-12 22:14:00
6:53 PM,41.0,34.0,76,29.74,10.0,SW,9.2,-,N/A,,Overcast,220,2013-04-12 22:53:00
7:19 PM,41.0,33.8,76,29.73,10.0,SW,13.8,-,N/A,,Overcast,230,2013-04-12 23:19:00
7:53 PM,39.9,35.1,83,29.75,10.0,SW,11.5,19.6,N/A,,Overcast,230,2013-04-12 23:53:00
8:43 PM,39.2,35.6,87,29.75,10.0,SW,8.1,-,N/A,,Overcast,220,2013-04-13 00:43:00
8:53 PM,39.9,35.1,83,29.76,10.0,SW,10.4,-,N/A,,Overcast,220,2013-04-13 00:53:00
9:11 PM,39.2,35.6,87,29.75,10.0,SW,9.2,-,N/A,,Overcast,220,2013-04-13 01:11:00
9:53 PM,39.9,35.1,83,29.78,10.0,SW,9.2,-,N/A,,Overcast,220,2013-04-13 01:53:00
10:02 PM,39.2,35.6,87,29.76,10.0,SW,8.1,-,N/A,,Overcast,220,2013-04-13 02:02:00
10:53 PM,41.0,36.0,82,29.78,10.0,SW,10.4,-,N/A,,Overcast,220,2013-04-13 02:53:00
11:53 PM,39.9,37.0,89,29.79,10.0,SW,10.4,-,N/A,,Overcast,230,2013-04-13 03:53:00